Aérodrome :
LOGIN :

S'inscrire | Disclaimer

   EN    FR    IT 

 










Légende :    VFR   VFR Marginal   IFR   IFR Intensif   IFR Très Intensif
Visi : 
Plafond : 
>= 8 km
>= 3000ft
5 à 8 km
1000 à 3000 ft
1500m à 5 km
500 à 1000 ft
800 à 1500m
200 à 500 ft
< 800m
< 200 ft
Symboles :   Orages  Brouillard  Fortes neiges  Fortes précipitations  Vent > 20 kt
SIGMETs :   Divers  Orages  Givrage  Turbulence  Onde Orograph.  Cendres Volcan.







- Altitude de l'aérodrome : 336 ft
- Code IATA : GCI
- Voir les cartes d'approche


EGJB - Guernsey

DERNIER METAR :
  • 260850Z 27012KT 9999 FEW016 FEW018TCU 11/07 Q1020

METARs EXPIRÉS :
  • 260820Z 27015KT 9999 FEW016 11/06 Q1020
  • 260750Z 26014KT 9999 VCSH FEW016 FEW018CB 10/06 Q1021
  • 260720Z 27011KT 9999 FEW016 FEW018CB 10/06 Q1020
  • 260650Z 26011KT 9999 FEW016 09/06 Q1020
  • 260620Z 26010KT 9999 FEW016 09/06 Q1020

TAF TAF EGJB
Valide du 26 à 09h jusqu'au 26 à 18h UTC


260759Z 2609/2618 26012KT 9999 FEW015
PROB30
TEMPO 2609/2611 8000 SHRA BKN015
ATIS : +44 1481 238 957
Pas de NOTAMs connus pour ce terrain.



MET'MAP, la Météo Aéronautique d'un coup d'oeil ! - Copyright ORBIFLY Décembre 2007 - Disclaimer

ORBIFLY MET'MAP TEAM :

Programmation & Développement : Alexandra Zaïnal
Conception & Développement : Baudouin d'Aumeries
Co-Programmation & Développement : Marc-Olivier Méhu
Soutien technique & logistique : Manuel Goepfert

Contact : metmap@orbifly.com




SOURCES & CREDITS :

   NOAA